Other Surface Observations
Issued by NWS Charleston, SC

Home | Current Version | Previous Version | Text Only | Print | Product List | Glossary On
Versions: 1 2 3 4 5 6 7 8 9 10 11 12 13 14 15 16 17 18 19 20 21 22 23 24 25 26 27 28 29 30 31 32 33 34 35 36 37 38 39 40 41 42 43 44 45 46 47 48 49 50
000
SXUS52 KCHS 300013
OSOCHS

MARINE OBSERVATIONS
NATIONAL WEATHER SERVICE CHARLESTON SC
800 PM EDT FRI JUL 29 2016

...DOWNTOWN CHARLESTON AND HARBOR...

CITY           SKY/WX    TMP DP  RH WIND       PRES   REMARKS
WATERFRONT PRK   N/A     88  79  74 SW12      29.91S HX 103

...LAKE MOULTRIE...

CITY           SKY/WX    TMP DP  RH WIND       PRES   REMARKS
PINOPOLIS        N/A     93  75  55 SW7       29.83R HX 104

...LAKE AND SUPPLEMENTAL COASTAL OBSERVATIONS...

STATION/POSITION TIME  TEMP    WIND        PRES    WAVE   SWELL
                       AIR SEA DIR/SP/G            HT/PER HT/PER/DIR
                 (UTC) (F)     (DEG/KT/KT) (MB)    (FT/S) (FT/S/D)
FORT PULASKI     2318      88                N/A
SAPELO ISLAND    2300   92     170/ 12     1014.0S
WINYAH BAY       2245   89     210/ 13     1012.0
LAKE MURRAY      2300   94      CALM  /  2 1011.9F
ACE BASIN NERRS  NOT AVBL


...C-MAN AND BUOY OBSERVATIONS...

STATION/POSITION TIME  TEMP    WIND        PRES    WAVE   SWELL
                       AIR SEA DIR/SP/G            HT/PER HT/PER/DIR
                 (UTC) (F)     (DEG/KT/KT) (MB)    (FT/S) (FT/S/D)
BUOY 41004       2350   86 86  210/ 17/ 19 1013.1R   3/ 4   2/150/ 8
BUOY 41008       2350   87 87  170/ 16/ 17 1014.1R   2/ 4
FOLLY BEACH CMAN 0000   86     210/ 18/ 20 1014.0R
CAPERS NS BUOY   2308   86 85  220/ 17/ 21 1013.5R
FRIPP NS BUOY    2308   88 88  200/ 16/ 21 1013.0S
5E ST. MARYS GA  2301      86                N/A     2/ 3


STATION/POSITION TIME  TEMP    WIND        PRES    WAVE   SWELL
                       AIR SEA DIR/SP/G            HT/PER HT/PER/DIR
                 (UTC) (F)     (DEG/KT/KT) (MB)    (FT/S) (FT/S/D)
FRYING PAN BUOY  2300   86 85  210/ 16/ 19 1013.0R
BUOY 41025       2350   86 86  230/ 19/ 23 1012.1R   4/ 5   2/320/14
CAPE LOOKOUT NC  0000   85     220/ 10/ 13 1012.6R
BUOY 41002       2350   85 85  230/ 10/ 10 1015.6R   4/ 7   3/260/ 7
BUOY 41010       2320   87 87  250/  2/  2 1016.6S
ST AUGUSTINE FL  0000   84 87  210/  9/ 11 1017.1R

$$




USA.gov is the U.S. government's official web portal to all federal, state and local government web resources and services.